Location: Belfast
(54.5830°N, 5.9330°W)
Time: 14:35:32
(UTC+01:00)

ISS - Pass Details

Date: 24 May 2018
Orbit: 402 x 408 km, 51.6° (Epoch: 18 September)

Event Time Altitude Azimuth Distance (km) Brightness Sun altitude
Rises 00:10:06 0° 257° (WSW) 2,320 0.1 -13.2°
Reaches altitude 10° 00:12:13 10° 252° (WSW) 1,460 -1.0 -13.3°
Maximum altitude 00:15:23 50° 176° (S) 525 -3.7 -13.4°
Drops below altitude 10° 00:18:34 10° 100° (E) 1,459 -1.3 -13.5°
Enters shadow 00:20:47 - 95° (E) 2,367 -0.1 -13.6°
